Regional Weather Roundup
Issued by NWS Little Rock, AR

Home | Current Version | Previous Version | Text Only | Print | Product List | Glossary Off
Versions: 1 2 3 4 5 6 7 8 9 10 11 12 13 14 15 16 17 18 19 20 21 22 23 24 25 26 27 28 29 30 31 32 33 34 35 36 37 38 39 40 41 42 43 44 45 46 47 48 49 50

000
ASUS44 KLZK 201505
RWRLZK

WEATHER ROUNDUP FOR ARKANSAS
NATIONAL WEATHER SERVICE LITTLE ROCK AR
1000 AM CDT MON OCT 20 2014

NOTE: "FAIR" INDICATES FEW OR NO CLOUDS BELOW 12,000 FEET WITH NO
SIGNIFICANT WEATHER AND/OR OBSTRUCTIONS TO VISIBILITY.

ARZ001-003-010-029-201600-
NORTHWEST ARKANSAS

CITY           SKY/WX    TMP DP  RH WIND       PRES   REMARKS
FAYETTEVILLE   LGT RAIN  56  55  97 S6        30.12S
FORT SMITH     PTSUNNY   58  53  84 CALM      30.11R
HARRISON       SUNNY     64  53  67 W9        30.08S
BENTONVILLE    CLOUDY    57  54  88 SW6       30.11R
ROGERS         LGT RAIN  58  53  84 SW10      30.11R
SILOAM SPGS    CLOUDY    57  48  72 SW8       30.12S
HIGHFILL       CLOUDY    57  54  89 SW5       30.11R
$$

ARZ004-005-016-201600-
NORTH CENTRAL ARKANSAS

CITY           SKY/WX    TMP DP  RH WIND       PRES   REMARKS
BATESVILLE     PTSUNNY   59  52  77 CALM      30.09S
FLIPPIN        MOSUNNY   59  48  67 S5        30.08S
MTN HOME       CLOUDY    60  52  74 CALM      30.07S
$$

ARZ040-041-201600-
WEST CENTRAL ARKANSAS

CITY           SKY/WX    TMP DP  RH WIND       PRES   REMARKS
MENA           MOSUNNY   63  54  72 CALM      30.13R
MOUNT IDA      PTSUNNY   57  53  86 CALM      30.10R
$$

ARZ009-017-025-026-028-201600-
NORTHEAST ARKANSAS

CITY           SKY/WX    TMP DP  RH WIND       PRES   REMARKS
CORNING        FAIR      57  50  77 SW9       30.08S
JONESBORO      PTSUNNY   60  50  69 SW8       30.08S
NEWPORT        PTSUNNY   61  52  72 SW7       30.10F
WALNUT RIDGE   PTSUNNY   57  37  47 S8        30.08S
BLYTHEVILLE    PTSUNNY   59  51  75 SW6       30.09S
NW BLYTHEVILLE PTSUNNY   59  52  77 SW7       30.09R
$$

ARZ022-023-033-042-044-201600-
CENTRAL ARKANSAS

CITY           SKY/WX    TMP DP  RH WIND       PRES   REMARKS
LITTLE ROCK    PTSUNNY   63  52  67 SW7       30.11F
N LITTLE ROCK  PTSUNNY   61  53  75 SW5       30.11F
JACKSONVILLE   PTSUNNY   58  53  84 CALM      30.10S
SEARCY         CLOUDY    56  51  84 CALM      30.12S
HOT SPRINGS    CLOUDY    56  52  86 CALM      30.13R
RUSSELLVILLE   CLOUDY    57  51  80 CALM      30.11S
$$

ARZ036-201600-
EAST ARKANSAS

CITY           SKY/WX    TMP DP  RH WIND       PRES   REMARKS
WEST MEMPHIS   SUNNY     61  53  75 SW6       30.10S
$$

ARZ050-053-066-070-073-201600-
SOUTHWEST ARKANSAS

CITY           SKY/WX    TMP DP  RH WIND       PRES   REMARKS
ARKADELPHIA    PTSUNNY   58  55  89 CALM      30.13S FOG
CAMDEN         SUNNY     59  52  77 CALM      30.13S
TEXARKANA      SUNNY     63  52  67 SW7       30.13R
EL DORADO      SUNNY     61  51  70 CALM      30.13R
DE QUEEN       SUNNY     60  55  83 CALM      30.12R
$$

ARZ056-057-069-201600-
SOUTHEAST ARKANSAS

CITY           SKY/WX    TMP DP  RH WIND       PRES   REMARKS
PINE BLUFF     MOSUNNY   60  50  69 SW5       30.12S
STUTTGART      PTSUNNY   61  52  72 S3        30.12F
MONTICELLO     SUNNY     63  51  65 CALM      30.12R

$$




USA.gov is the U.S. government's official web portal to all federal, state and local government web resources and services.